Weather Roundup
Issued by NWS Springfield, MO

Home | Current Version | Previous Version | Text Only | Print | Product List | Glossary On
Versions: 1 2 3 4 5 6 7 8 9 10 11 12 13 14 15 16 17 18 19 20 21 22 23 24 25 26 27 28 29 30 31 32 33 34 35 36 37 38 39 40 41 42 43 44 45 46 47 48 49 50
000
NZUS99 KSGF 062307
HRRSGF

HOURLY WEATHER
NATIONAL WEATHER SERVICE SPRINGFIELD MO
500 PM CST SAT FEB 06 2016

......SGF CWA......

CITY           SKY/WX    TMP DP  RH WIND       PRES   REMARKS
SPRINGFIELD    PTCLDY    51  26  37 SW8       30.22F
JOPLIN         PTCLDY    50  31  48 SW13      30.26S
WEST PLAINS    CLEAR     51  17  26 SW8       30.25F
ROLLA          PTCLDY    51  27  39 SW12      30.19F
OSAGE BEACH    PTCLDY    52  28  40 SW12      30.22S
BRANSON        PTCLDY    52  19  28 SW8       30.25F

......SURROUNDING SGF CWA......

CITY           SKY/WX    TMP DP  RH WIND       PRES   REMARKS
CHANUTE        CLEAR     50  29  44 SW13      30.23F
PARSONS        CLEAR     51  28  41 SW8       30.25F
COFFEYVILLE    CLEAR     51  26  37 SW13      30.26F
EMPORIA        CLEAR     47  27  45 SW10      30.20F
GROVE OK       CLEAR     54  32  43 W10       30.28S
ROGERS AR      PTCLDY    51  27  39 SW7       30.26S
SILOAM SPRINGS PTCLDY    52  25  35 SW8       30.27S
HARRISON AR    CLEAR     52  22  30 W6        30.25S
NEAR YELLVILLE CLEAR     54  18  24 SW5       30.24F

......KANSAS AND MISSOURI......

CITY           SKY/WX    TMP DP  RH WIND       PRES   REMARKS
KANSAS CTY INT PTCLDY    46  30  53 SW15      30.18F
DOWNTOWN KC    CLEAR     49  28  44 SW13      30.19F
COLUMBIA       CLEAR     51  27  39 W12       30.19S
SEDALIA        CLEAR     50  27  40 SW12      30.21F
ST JOSEPH      CLEAR     47  30  51 SW15      30.17F
ST LOUIS       PTCLDY    55  25  31 SW10      30.20F
SPIRIT OF STL  CLEAR     53  28  38 SW7       30.19F
KIRKSVILLE     CLEAR     45  28  51 VRB6      30.16F
WICHITA        PTCLDY    50  25  37 SW13      30.22F
TOPEKA         CLEAR     49  27  42 SW10      30.19F
OLATHE         CLEAR     46  28  49 SW12      30.20F

......TENNESSEE......

CITY           SKY/WX    TMP DP  RH WIND       PRES   REMARKS
MEMPHIS        PTCLDY    53  21  28 CALM      30.30F
NASHVILLE      MOCLDY    50  16  25 CALM      30.29F

......ARKANSAS.......

CITY           SKY/WX    TMP DP  RH WIND       PRES   REMARKS
FAYETTEVILLE   CLEAR     51  25  36 W9        30.26F
FT SMITH       CLEAR     55  17  22 W3        30.29F
LITTLE ROCK    CLEAR     54  21  27 CALM      30.30S

......OKLAHOMA.......

CITY           SKY/WX    TMP DP  RH WIND       PRES   REMARKS
TULSA          PTCLDY    53  29  39 W10       30.26F
PONCA CITY     CLEAR     50  26  39 W7        30.27F
MCALESTER      PTCLDY    54  30  40 SW7       30.30F
OKLAHOMA CITY  MOSUNNY   50  26  39 SW6       30.29F

......IOWA............

CITY           SKY/WX    TMP DP  RH WIND       PRES   REMARKS
DES MOINES     PTCLDY    37  29  72 S10       30.10F WCI  30
QUAD CITIES    CLEAR     39  29  67 W7        30.14F WCI  34

......ILLINOIS........

CITY           SKY/WX    TMP DP  RH WIND       PRES   REMARKS
QUINCY         CLEAR     47  25  42 W9        30.16F
CHICAGO        PTCLDY    39  28  64 SW8       30.14S WCI  33



USA.gov is the U.S. government's official web portal to all federal, state and local government web resources and services.